Topeka, KS

9:49 AM CST on December 13, 2019 (GMT -0600)
Billard Municipal

Weather History for KTOP - August, 2019

Change the Weather History Date:

Thursday, August 1, 2019

  Actual Average Record
Temperature  
Mean Temperature 76 °F 79 °F  
Max Temperature 84 °F 90 °F 109 °F (2011)
Min Temperature 68 °F 68 °F 53 °F (1977)
Degree Days  
Heating Degree Days 0 0  
Month to date heating degree days 0 0  
Since 1 June heating degree days 0 8  
Since 1 July heating degree days 0 0  
Cooling Degree Days 11 14  
Month to date cooling degree days 11 14  
Year to date cooling degree days 890 856  
Since 1 June cooling degree days 778 730  
Growing Degree Days 26 (Base 50)    
Moisture  
Dew Point 68 °F    
Average Humidity 78    
Maximum Humidity 90    
Minimum Humidity 65    
Precipitation  
Precipitation 1.53 in 0.13 in 2.39 in (1954)
Month to date precipitation 1.53 0.13  
Year to date precipitation 30.39 22.46  
Snow  
Snow 0.00 in 0.00 in 0.00 in ()
Month to date snowfall 0.0 0.0  
Year to date snowfall 18.5 11.3  
Since 1 July snowfall 0.0 0.0  
Snow Depth 0.00 in    
Sea Level Pressure  
Sea Level Pressure 30.06 in    
Wind  
Wind Speed 8 mph (ESE)    
Max Wind Speed 23 mph    
Max Gust Speed 51 mph    
Visibility 8 miles    
Events Fog , Rain , Thunderstorm    
T = Trace of Precipitation, MM = Missing Value Source: NWS Daily Summary

Daily Weather History Graph

Daily Weather History Graph

Search for Another Location

Airport or City:

Astronomy

Aug. 01, 2019 Rise Set
Actual Time 6:22 AM CDT 8:34 PM CDT
Civil Twilight 5:53 AM CDT 9:03 PM CDT
Nautical Twilight 5:16 AM CDT 9:40 PM CDT
Astronomical Twilight 4:36 AM CDT 10:20 PM CDT
Moon 6:48 AM CDT (8/1) 9:22 PM CDT (8/1)
Length of Visible Light 15h 10m
Length of Day
14h 11m
New Moon, 1% of the Moon is Illuminated
Aug 1
New Moon
Aug 7
First Quarter
Aug 15
Full
Aug 23
Last Quarter
Aug 30
New

Hourly Weather History & Observations

Time (CDT) Temp. Heat Index Dew Point Humidity Pressure Visibility Wind Dir Wind Speed Gust Speed Precip Events Conditions
12:07 AM 69.1 °F - 66.9 °F 93% 30.06 in 3.0 mi Calm Calm - 0.07 in Rain , Thunderstorm Heavy Thunderstorms and Rain
12:10 AM 69.1 °F - 66.9 °F 93% 30.04 in 2.5 mi SE 9.2 mph - 0.11 in Rain , Thunderstorm Heavy Thunderstorms and Rain
12:17 AM 69.1 °F - 66.9 °F 93% 30.04 in 4.0 mi SSE 10.4 mph 19.6 mph 0.17 in Rain , Thunderstorm Thunderstorms and Rain
12:22 AM 69.1 °F - 66.9 °F 93% 30.03 in 6.0 mi SE 8.1 mph - 0.17 in Rain Light Rain
12:37 AM 69.1 °F - 66.9 °F 93% 30.03 in 5.0 mi SE 8.1 mph - 0.22 in Rain , Thunderstorm Rain
12:51 AM 69.8 °F - 66.2 °F 88% 30.04 in 10.0 mi East 5.8 mph - 0.26 in Rain , Thunderstorm Light Thunderstorms and Rain
12:53 AM 70.0 °F - 66.9 °F 90% 30.01 in 10.0 mi ENE 11.5 mph - 0.26 in Rain , Thunderstorm Light Thunderstorms and Rain
1:07 AM 70.0 °F - 66.9 °F 90% 30.04 in 10.0 mi ESE 12.7 mph - 0.00 in Thunderstorm Overcast
1:44 AM 69.1 °F - 66.0 °F 90% 30.09 in 2.0 mi East 18.4 mph 24.2 mph 0.02 in Rain , Thunderstorm Heavy Thunderstorms and Rain
1:48 AM 69.8 °F - 66.2 °F 88% 30.09 in 1.0 mi East 15.0 mph - 0.25 in Rain , Thunderstorm Heavy Thunderstorms and Rain
1:51 AM 68.0 °F - 66.2 °F 94% 30.07 in 0.8 mi East 16.1 mph - 0.43 in Rain , Thunderstorm Heavy Thunderstorms and Rain
1:53 AM 68.0 °F - 66.0 °F 93% 30.03 in 0.8 mi East 19.6 mph 26.5 mph 0.55 in Rain , Thunderstorm Heavy Thunderstorms and Rain
1:57 AM 68.0 °F - 66.0 °F 93% 30.02 in 0.5 mi East 23.0 mph 51.8 mph 0.17 in Fog , Rain , Thunderstorm Heavy Thunderstorms and Rain
2:10 AM 70.0 °F - 68.0 °F 93% 30.03 in 1.0 mi Variable 5.8 mph 27.6 mph 0.90 in Rain , Thunderstorm Heavy Thunderstorms and Rain
2:16 AM 71.1 °F - 66.9 °F 87% 30.03 in 3.0 mi ESE 13.8 mph - 0.92 in Rain , Thunderstorm Light Thunderstorms and Rain
2:21 AM 70.0 °F - 66.9 °F 90% 30.05 in 6.0 mi SSE 8.1 mph 16.1 mph 0.95 in Rain , Thunderstorm Thunderstorms and Rain
2:30 AM 70.0 °F - 66.9 °F 90% 30.05 in 10.0 mi SE 11.5 mph - 0.95 in Rain , Thunderstorm Light Rain
2:45 AM 70.0 °F - 66.9 °F 90% 30.05 in 10.0 mi ENE 8.1 mph - 0.96 in Thunderstorm Thunderstorm
2:53 AM 70.0 °F - 68.0 °F 93% 30.04 in 10.0 mi NE 5.8 mph - 0.96 in Thunderstorm Thunderstorm
2:59 AM 70.0 °F - 66.9 °F 90% 30.08 in 10.0 mi NNE 12.7 mph 20.7 mph N/A Thunderstorm Overcast
3:29 AM 70.0 °F - 66.9 °F 90% 30.08 in 10.0 mi East 13.8 mph - 0.00 in Rain , Thunderstorm Light Rain
3:37 AM 70.0 °F - 66.9 °F 90% 30.07 in 10.0 mi East 13.8 mph - 0.00 in Rain , Thunderstorm Light Rain
3:53 AM 69.1 °F - 66.9 °F 93% 30.04 in 10.0 mi East 12.7 mph - 0.00 in Thunderstorm Overcast
4:09 AM 70.0 °F - 66.9 °F 90% 30.08 in 10.0 mi East 10.4 mph - N/A Thunderstorm Thunderstorm
4:38 AM 69.1 °F - 66.9 °F 93% 30.08 in 10.0 mi ESE 9.2 mph - N/A Thunderstorm Overcast
4:53 AM 69.1 °F - 66.9 °F 93% 30.06 in 10.0 mi East 8.1 mph - 0.00 in Rain , Thunderstorm Light Rain
5:06 AM 70.0 °F - 66.9 °F 90% 30.07 in 10.0 mi ESE 6.9 mph - 0.00 in Rain Light Rain
5:40 AM 69.1 °F - 66.9 °F 93% 30.09 in 10.0 mi ESE 11.5 mph - 0.00 in Rain , Thunderstorm Light Rain
5:53 AM 69.1 °F - 66.9 °F 93% 30.05 in 10.0 mi SE 12.7 mph - 0.00 in   Overcast
6:00 AM 69.1 °F - 66.9 °F 93% 30.07 in 10.0 mi SE 15.0 mph - N/A Thunderstorm Overcast
6:10 AM 69.1 °F - 66.9 °F 93% 30.07 in 10.0 mi SE 10.4 mph - N/A   Overcast
6:31 AM 70.0 °F - 66.9 °F 90% 30.08 in 10.0 mi SSE 8.1 mph - 0.01 in Rain , Thunderstorm Light Rain
6:44 AM 70.0 °F - 66.9 °F 90% 30.10 in 9.0 mi ENE 6.9 mph - 0.02 in Rain Light Rain
6:53 AM 70.0 °F - 66.9 °F 90% 30.08 in 10.0 mi East 4.6 mph - 0.02 in Rain , Thunderstorm Light Rain
7:46 AM 70.0 °F - 66.9 °F 90% 30.11 in 10.0 mi SE 5.8 mph - 0.00 in   Overcast
7:53 AM 70.0 °F - 66.9 °F 90% 30.09 in 10.0 mi Calm Calm - 0.00 in   Overcast
8:06 AM 70.0 °F - 66.9 °F 90% 30.12 in 10.0 mi SE 6.9 mph - N/A Thunderstorm Overcast
8:15 AM 70.0 °F - 66.9 °F 90% 30.12 in 10.0 mi ESE 6.9 mph - N/A Thunderstorm Overcast
8:27 AM 70.0 °F - 68.0 °F 93% 30.12 in 10.0 mi SE 4.6 mph - N/A Thunderstorm Overcast
8:31 AM 70.0 °F - 68.0 °F 93% 30.12 in 10.0 mi East 8.1 mph - N/A   Overcast
8:53 AM 71.1 °F - 68.0 °F 90% 30.08 in 10.0 mi SSE 8.1 mph - N/A   Overcast
9:53 AM 73.0 °F - 69.1 °F 87% 30.10 in 10.0 mi East 6.9 mph - N/A   Mostly Cloudy
10:01 AM 73.0 °F - 68.0 °F 84% 30.12 in 10.0 mi SE 5.8 mph - N/A   Mostly Cloudy
10:13 AM 73.9 °F - 69.1 °F 85% 30.11 in 10.0 mi SE 5.8 mph - N/A   Mostly Cloudy
10:53 AM 75.0 °F - 68.0 °F 79% 30.09 in 10.0 mi SE 8.1 mph - N/A   Overcast
11:53 AM 77.0 °F - 68.0 °F 74% 30.10 in 10.0 mi ESE 10.4 mph - N/A   Overcast
12:53 PM 80.1 °F 82.9 °F 69.1 °F 69% 30.10 in 10.0 mi ESE 9.2 mph - N/A   Mostly Cloudy
1:53 PM 81.0 °F 83.8 °F 68.0 °F 65% 30.08 in 10.0 mi ESE 11.5 mph - N/A   Overcast
2:53 PM 82.0 °F 85.5 °F 69.1 °F 65% 30.06 in 10.0 mi ENE 11.5 mph - N/A   Scattered Clouds
3:53 PM 82.9 °F 86.5 °F 69.1 °F 63% 30.04 in 10.0 mi East 12.7 mph - N/A   Scattered Clouds
4:53 PM 82.9 °F 86.5 °F 69.1 °F 63% 30.04 in 10.0 mi East 9.2 mph - N/A   Scattered Clouds
5:53 PM 82.0 °F 85.5 °F 69.1 °F 65% 30.04 in 10.0 mi SE 8.1 mph - N/A   Overcast
6:53 PM 81.0 °F 84.4 °F 70.0 °F 69% 30.03 in 10.0 mi East 10.4 mph - N/A   Mostly Cloudy
7:53 PM 80.1 °F 83.6 °F 71.1 °F 74% 30.01 in 10.0 mi ESE 9.2 mph - N/A   Partly Cloudy
8:53 PM 78.1 °F - 71.1 °F 79% 30.02 in 10.0 mi ESE 8.1 mph - N/A   Clear
9:53 PM 77.0 °F - 70.0 °F 79% 30.05 in 10.0 mi East 6.9 mph - N/A   Clear
10:53 PM 75.9 °F - 70.0 °F 82% 30.06 in 10.0 mi ESE 4.6 mph - N/A   Mostly Cloudy
11:53 PM 75.9 °F - 69.1 °F 79% 30.06 in 10.0 mi ENE 3.5 mph - N/A   Mostly Cloudy